Location: Austin
(30.3000°N, 97.7500°W)
Time: 23:30:56
(UTC-05:00)

Cosmos 2056 Rocket - Pass Details

Date: 06 May 2026
Orbit: 738 x 796 km, 74.0° (Epoch: 13 May)

Event Time Altitude Azimuth Distance (km) Brightness Sun altitude
Rises 21:10:16 0° 192° (SSW) 3,273 6.6 -12.3°
Reaches altitude 10° 21:12:38 10° 191° (SSW) 2,351 5.9 -12.7°
Maximum altitude 21:18:00 82° 104° (ESE) 806 3.5 -13.7°
Drops below altitude 10° 21:23:24 10° 18° (NNE) 2,364 6.2 -14.7°
Sets 21:25:48 0° 18° (NNE) 3,293 6.9 -15.2°
